CW9987 Weather Reports


time (UTC)temp
C
wind
direction
speed
KPH
gust
KPH
rain 1hr
cm
rain 24hr
cm
rain mn
cm
humidity
%
barometer
mb
20260906120055 11 0 0.0 3.2 0.00 0.00 0.00 92 1019.9
20260906114604 11 0 0.0 0.0 0.00 0.00 0.00 92 1019.6
20260906113057 12 0 0.0 3.2 0.00 0.00 0.00 92 1019.5
20260906111552 12 0 0.0 3.2 0.00 0.00 0.00 91 1019.5
20260906110054 12 61 0.0 3.2 0.00 0.00 0.00 91 1019.4
20260906104549 12 0 0.0 3.2 0.00 0.00 0.00 92 1019.3
20260906103057 12 0 0.0 3.2 0.00 0.00 0.00 91 1019.5
20260906101557 12 0 0.0 3.2 0.00 0.00 0.00 90 1019.5
20260906100056 12 61 0.0 3.2 0.00 0.00 0.00 90 1019.2
20260906094605 12 0 0.0 3.2 0.00 0.00 0.00 89 1019.2
20260906093058 13 61 0.0 3.2 0.00 0.00 0.00 90 1019.2
20260906091603 13 0 0.0 0.0 0.00 0.00 0.00 89 1019.2
20260906090056 13 61 0.0 3.2 0.00 0.00 0.00 88 1018.9
20260906084604 13 61 1.6 3.2 0.00 0.00 0.00 87 1018.6
20260906083057 14 61 0.0 3.2 0.00 0.00 0.00 87 1018.6
20260906081558 14 71 1.6 3.2 0.00 0.00 0.00 87 1018.4
20260906080055 14 86 0.0 3.2 0.00 0.00 0.00 86 1018.2
20260906074554 14 55 1.6 3.2 0.00 0.00 0.00 85 1018.3
20260906073055 15 59 0.0 3.2 0.00 0.00 0.00 84 1018.2
20260906071556 15 55 1.6 4.8 0.00 0.00 0.00 83 1018.2
20260906070056 15 74 1.6 4.8 0.00 0.00 0.00 83 1018.4
20260906064553 15 94 1.6 6.4 0.00 0.00 0.00 82 1018.3
20260906063101 15 89 3.2 9.7 0.00 0.00 0.00 82 1018.2
20260906061600 16 79 3.2 6.4 0.00 0.00 0.00 81 1018.3
20260906060056 16 87 1.6 6.4 0.00 0.00 0.00 80 1018.2
20260906054553 16 61 3.2 6.4 0.00 0.00 0.00 81 1018.2
20260906053100 16 64 1.6 4.8 0.00 0.00 0.00 80 1018.1
20260906051559 17 87 3.2 6.4 0.00 0.00 0.00 79 1018.1
20260906050056 17 86 3.2 11.3 0.00 0.00 0.00 78 1018.0
20260906044550 17 114 3.2 9.7 0.00 0.00 0.00 77 1017.9
20260906043102 18 76 3.2 14.5 0.00 0.00 0.00 77 1017.5
20260906041600 18 77 3.2 12.9 0.00 0.00 0.00 78 1017.3
20260906040056 18 96 1.6 8.0 0.00 0.00 0.00 78 1017.5
20260906034551 18 90 4.8 8.0 0.00 0.00 0.00 80 1017.3
20260906033110 18 98 1.6 4.8 0.00 0.00 0.00 82 1017.3
20260906031553 18 82 1.6 3.2 0.00 0.00 0.00 82 1017.5
20260906030054 19 122 0.0 4.8 0.00 0.00 0.00 80 1017.2
20260906024556 19 92 0.0 3.2 0.00 0.00 0.00 78 1016.9
20260906023100 20 0 1.6 6.4 0.00 0.00 0.00 77 1016.8
20260906021559 20 74 3.2 6.4 0.00 0.00 0.00 76 1016.7
20260906020105 21 57 1.6 4.8 0.00 0.00 0.00 75 1016.6
20260906014602 21 87 1.6 6.4 0.00 0.00 0.00 74 1016.8
20260906013109 22 113 4.8 14.5 0.00 0.00 0.00 73 1016.7
20260906011605 22 121 4.8 11.3 0.00 0.00 0.00 75 1016.4
20260906010058 22 108 0.0 4.8 0.00 0.00 0.00 77 1016.3
20260906004603 22 88 1.6 4.8 0.00 0.00 0.00 78 1016.2
20260906003102 22 73 1.6 3.2 0.00 0.00 0.00 79 1015.9
20260906001553 23 86 1.6 3.2 0.00 0.00 0.00 78 1016.0
20260906000055 23 51 1.6 3.2 0.00 0.00 0.00 76 1015.9
20260905234559 23 81 0.0 3.2 0.00 0.00 0.00 75 1016.0
20260905233056 24 67 0.0 3.2 0.00 0.00 0.00 73 1015.9
20260905231553 24 111 0.0 3.2 0.00 0.00 0.00 74 1015.7
20260905230058 24 85 1.6 6.4 0.00 0.00 0.00 72 1015.9
20260905224556 24 53 3.2 6.4 0.00 0.00 0.00 73 1015.7
20260905223053 24 74 1.6 9.7 0.00 0.00 0.00 73 1015.7
20260905221549 25 5 3.2 11.3 0.00 0.00 0.00 72 1015.5
20260905220059 25 28 4.8 12.9 0.00 0.00 0.00 72 1015.3
20260905214553 24 70 4.8 17.7 0.00 0.00 0.00 74 1015.3
20260905213107 25 87 6.4 12.9 0.00 0.00 0.00 73 1015.3
20260905211559 24 342 6.4 14.5 0.00 0.00 0.00 76 1015.3
20260905210110 23 76 6.4 11.3 0.00 0.00 0.00 78 1015.3
20260905204558 23 50 1.6 12.9 0.00 0.00 0.00 83 1015.4
20260905203102 22 30 4.8 11.3 0.00 0.00 0.00 82 1015.5
20260905201556 22 98 4.8 9.7 0.00 0.00 0.00 83 1015.7
20260905200056 22 53 4.8 16.1 0.00 0.00 0.00 84 1015.5
20260905194606 21 88 4.8 14.5 0.00 0.03 0.00 86 1015.6
20260905193057 21 53 6.4 16.1 0.00 0.03 0.00 86 1015.9
20260905191559 21 80 4.8 14.5 0.00 0.03 0.00 86 1015.7
20260905190053 21 65 6.4 20.9 0.00 0.03 0.00 85 1015.9
20260905184617 21 44 3.2 12.9 0.00 0.03 0.00 86 1016.0
20260905183101 21 76 4.8 14.5 0.00 0.03 0.00 87 1016.0
20260905181600 21 100 8.0 16.1 0.00 0.03 0.00 87 1015.9
20260905180054 21 96 6.4 14.5 0.00 0.03 0.00 88 1016.0
20260905174600 20 30 4.8 14.5 0.00 0.03 0.00 89 1015.8
20260905173113 20 144 4.8 16.1 0.00 0.03 0.00 89 1015.7
20260905171624 20 61 3.2 9.7 0.00 0.03 0.00 90 1015.8
20260905170054 20 102 3.2 12.9 0.00 0.03 0.00 90 1015.9
20260905164549 20 70 4.8 12.9 0.00 0.13 0.00 88 1016.0
20260905163107 20 107 4.8 11.3 0.00 0.13 0.00 87 1015.9
20260905161554 21 99 6.4 14.5 0.00 0.13 0.00 85 1015.9
20260905160054 21 46 4.8 14.5 0.00 0.13 0.00 85 1015.8
20260905154615 21 105 6.4 17.7 0.00 0.18 0.00 85 1015.6
20260905153106 21 74 3.2 14.5 0.00 0.18 0.00 86 1015.5
20260905151555 21 81 6.4 14.5 0.00 0.18 0.00 85 1015.6
20260905150058 21 121 4.8 14.5 0.00 0.18 0.00 86 1015.5
20260905144558 21 78 4.8 14.5 0.00 0.25 0.00 87 1015.3
20260905143057 20 82 4.8 16.1 0.00 0.25 0.00 87 1015.2
20260905141553 20 69 3.2 14.5 0.00 0.25 0.00 87 1015.2
20260905140105 20 69 3.2 12.9 0.00 0.25 0.00 88 1015.0
20260905134559 20 92 4.8 14.5 0.00 0.94 0.00 88 1014.9
20260905133055 20 33 4.8 14.5 0.00 0.94 0.00 89 1014.9
20260905131552 20 74 8.0 17.7 0.00 0.94 0.00 90 1014.7
20260905130054 20 63 6.4 14.5 0.00 0.94 0.00 91 1014.6
20260905124556 20 34 6.4 16.1 0.00 1.47 0.00 92 1014.6
20260905123101 20 87 4.8 12.9 0.00 1.47 0.00 93 1014.3
20260905121600 20 51 3.2 14.5 0.00 1.47 0.00 93 1014.3